Tracking 30306 objects as of 22-Apr-2025
HD Live streaming from Space Station
objects crossing your sky now

THORAD DELTA 1 DEB

Track THORAD DELTA 1 DEB now!
10-day predictions


NORAD ID: 8555
Int'l Code: 1974-089CS
Perigee: 1,393.3 km
Apogee: 1,502.7 km
Inclination: 101.4 °
Period: 114.7 minutes
Semi major axis: 7819 km
RCS: 0.0537 m2 (small)
Launch date: November 15, 1974
Source: United States (US)
Launch site: AIR FORCE WESTERN TEST RANGE (AFWTR)

Note: This is SATELLITE DEBRIS
Your satellite tracking list
Your tracking list is empty




NASA's NSSDC Master Catalog

Two Line Element Set (TLE):
1 08555U 74089CS  25109.56676222  .00000872  00000-0  55305-2 0  9991
2 08555 101.3928 235.9040 0070015 148.4709 273.6536 12.55671167300240
Source of the keplerian elements: AFSPC